Regional Weather Roundup
Issued by NWS

Home | Current Version | Previous Version | Text Only | Print | Product List | Glossary Off
Versions: 1 2 3 4 5 6 7 8 9 10 11 12 13 14 15 16 17 18 19 20 21 22 23 24 25 26 27 28 29 30 31 32 33 34 35 36 37 38 39 40 41 42 43 44 45 46 47 48 49 50

000
ASUS43 KBIS 190510
RWRND

NORTH DAKOTA REGIONAL WEATHER ROUNDUP
NATIONAL WEATHER SERVICE BISMARCK ND
1100 PM CST SUN FEB 18 2018

NOTE: "FAIR" INDICATES FEW OR NO CLOUDS BELOW 12,000 FEET WITH NO
SIGNIFICANT WEATHER AND/OR OBSTRUCTIONS TO VISIBILITY.


NDZ001>003-009>011-017-190600-
NORTHWEST NORTH DAKOTA

CITY           SKY/WX    TMP DP  RH WIND       PRES   REMARKS
WILLISTON      MOCLDY    -6  -9  86 CALM      30.11F
MINOT          CLOUDY     2  -8  63 NW10      30.11R WCI -14
MINOT AFB      CLOUDY     1  -8  64 N9        30.10R WCI -14
$$

NDZ018>021-031>035-040>046-190600-
SOUTHWEST NORTH DAKOTA

CITY           SKY/WX    TMP DP  RH WIND       PRES   REMARKS
BISMARCK       CLOUDY     8   0  69 N10       30.09R WCI  -6
DICKINSON      CLOUDY     5  -2  72 N7        30.02R WCI  -7
GARRISON         N/A      3  -5  69 N8        30.08R WCI -10
HETTINGER ARPT LGT SNOW   4  -1  80 N7        30.04R WCI  -8
$$

NDZ004>008-012>016-024-026-027-054-190600-
NORTHEAST NORTH DAKOTA

CITY           SKY/WX    TMP DP  RH WIND       PRES   REMARKS
GRAND FORKS    MOCLDY     8  -1  66 N23       30.08R WCI -13
GRND FRKS AFB  FAIR       6  -2  67 NE21      30.07S WCI -14
DEVILS LAKE    FAIR       3  -1  83 N10       30.09R WCI -12
$$

NDZ022-023-025-028>030-036>039-047>053-190600-
SOUTHEAST NORTH DAKOTA

CITY           SKY/WX    TMP DP  RH WIND       PRES   REMARKS
FARGO          CLOUDY    10   4  76 N18       30.03R WCI  -8
JAMESTOWN      CLOUDY     8   0  69 N17       30.03R WCI -10
$$





USA.gov is the U.S. government's official web portal to all federal, state and local government web resources and services.